Regional Weather Roundup
Issued by NWS Cleveland, OH

Home | Current Version | Previous Version | Graphics & Text | Print | Product List | Glossary On
Versions: 1 2 3 4 5 6 7 8 9 10 11 12 13 14 15 16 17 18 19 20 21 22 23 24 25 26 27 28 29 30 31 32 33 34 35 36 37 38 39 40 41 42 43 44 45 46 47 48 49 50
000
ASUS41 KCLE 172210
RWRCLE
OHIO REGIONAL WEATHER ROUNDUP
NATIONAL WEATHER SERVICE WILMINGTON, OH
500 PM EST SAT FEB 17 2018

NOTE: "FAIR" INDICATES FEW OR NO CLOUDS BELOW 12,000 FEET WITH NO
SIGNIFICANT WEATHER AND/OR OBSTRUCTIONS TO VISIBILITY.

OHZ001>008-015>018-024>027-034-035-043-044-172300-
   NORTHWEST OHIO

CITY           SKY/WX    TMP DP  RH WIND       PRES   REMARKS
DEFIANCE       CLOUDY    34  27  75 SW7       30.00S WCI  28
FINDLAY        CLOUDY    33  28  81 S6        29.98R HAZE    WCI  28
TOLEDO EXPRESS CLOUDY    34  28  79 S6        29.99S WCI  29
TOLEDO EXEC    CLOUDY    34  26  72 S7        30.00S WCI  28
LIMA           CLOUDY    32  32 100 S5        29.98F FOG     WCI  27
$$

OHZ009>014-019>023-028>033-038-089-172300-
   NORTHEAST OHIO

CITY           SKY/WX    TMP DP  RH WIND       PRES   REMARKS
CLE-HOPKINS    CLOUDY    34  25  69 S7        30.01F WCI  28
CLE-LAKEFRONT  CLOUDY    34  23  64 SE8       29.99F WCI  27
CUY CO. ARPT   CLOUDY    34  25  69 S5        29.99F WCI  30
LORAIN-ELYRIA  CLOUDY    32  22  66 VRB7      30.00S WCI  26
ASHTABULA      CLOUDY    30  22  72 S9        30.00F WCI  22
AKRON-CANTON   LGT SNOW  32  27  81 S6        29.99S WCI  26
WOOSTER        LGT SNOW  30  28  92 S6        29.99R FOG     WCI  24
MANSFIELD      CLOUDY    31  27  85 S7        29.98R WCI  24
YOUNGSTOWN     LGT SNOW  30  26  85 SE6       29.97F FOG     WCI  24
$$

OHZ042-051>053-060>062-070>072-077>081-172300-
  SOUTHWEST OHIO

CITY           SKY/WX    TMP DP  RH WIND       PRES   REMARKS
CINC-COVINGTON CLOUDY    34  34 100 S6        30.00R FOG     WCI  29
CINC-LUNKEN    CLOUDY    34  34 100 S5        30.04R FOG     WCI  30
HAMILTON       MIX PCPN  35  35 100 VRB3      30.04R FOG
DAYTON         CLOUDY    34  34 100 SW7       30.01R FOG     WCI  28
WRIGHT-PAT AFB CLOUDY    35  35 100 S5        30.00R
DAYTON GENERAL MIX PCPN  34  32  92 S6        30.00R FOG     WCI  29
WILMINGTON     CLOUDY    33  33 100 S8        29.99R FOG     WCI  26
$$

OHZ036-037-039>041-045>050-054>059-063>069-073>076-082>088-172300-
  CENTRAL AND SOUTHEAST OHIO

CITY           SKY/WX    TMP DP  RH WIND       PRES   REMARKS
COLUMBUS       LGT SNOW  33  32  96 S5        30.00R FOG     WCI  29
OSU AIRPORT    CLOUDY    33  33 100 S6        30.00R FOG     WCI  28
BOLTON FIELD   CLOUDY    32  30  93 S3        30.01R FOG
RICKENBACK AFB LGT SNOW  32  32 100 CALM      30.01R
NEWARK         LGT SNOW  33  30  88 CALM      29.99R FOG
MARION         CLOUDY    31  28  89 S5        30.00R FOG     WCI  26
LANCASTER      LGT SNOW  33  33 100 S3        30.01S FOG
ZANESVILLE     LGT SNOW  33  31  92 SE6       29.98F VSB 3/4 WCI  28
NEW PHILLY     LGT SNOW  32  31  96 CALM      30.00F FOG
$$



USA.gov is the U.S. government's official web portal to all federal, state and local government web resources and services.